Карточка аэропорта UNKL

Внимание!
Информация на этой странице в стадии наполнения.
Если вы не увидели какой-то информации, или заметили неточность - пожалуйста сообщите нам!
Спасибо!
Команда RU-STAFF
Название аэропортаЕмельяново
Название аэропорта (англ.)Yemelyanovo
Превышение942 ft. (287.1 m.)
Координаты56°10.386', 92°29.598'
Высота перехода7500ft
Эшелон переходаFL090
Коды ответчика5320-5377
Зона ОрВДКрасноярск РПИ (UNKL)
Данные METARUNKL 170730Z 10005G11MPS CAVOK 08/M08 Q1026 R11/CLRD65 NOSIG RMK QFE744
Проноз погоды (TAF)UNKL 170750Z 1709/1809 12003G08MPS CAVOK BECMG 1803/1806 27005G12MPS
NOTAMshow/hide NOTAM
AWOS   TABLE

Информация о ВПП

ВПП Длина ВПП (м.) Покрытие Курс ВПП Частота ILS
113700Асфальтобетон109110.5
293700Асфальтобетон289111.7

Диспетчерские позиции

Позывной Наименование органа УВД Частота
UNKL_APPКрасноярск-Подход127.7
UNKL_R_APPКрасноярск-Круг122.0
UNKL_GNDКрасноярск-Руление121.9
UNKL_TWRКрасноярск-Вышка118.3



Спутниковое изображение